ANIK F2

Last updated on Sat Apr 13 2024 01:02:36 GMT+0100 (British Summer Time)

1 28378U 04027A 24103.57023935 -.00000057 00000+0 00000+0 0 9996 2 28378 1.2239 89.4595 0002590 316.2073 249.7655 1.00271924 33285
UTC large
Height (km)
Speed (km/s)
/
Latitude / Longitude
Inclination (degrees)
Orbital Period (minutes)
Azimuth
Elevation
Range (km)
Doppler Factor

Next 0 passes for location: London (51.5072 / 0.1276)

Sorry there are no passes over London.